Flag for Germany Weather past 2 weeks in Rüsselsheim, Hesse, Germany

Now
59 °F

Passing clouds.


Feels Like: 59 °F
Forecast: 55 / 70 °F
Wind: No wind

Location: Wiesbaden Airport

Current Time: Oct 1, 2014 at 12:27:12 AM

Latest Report: Sep 30, 2014 at 11:58 PM


Visibility: N/A

Pressure: 30.31 "Hg

Humidity: 94%

Dew point: 57 °F

Location of RüsselsheimLocation

Historic Weather in Rüsselsheim — Graph

°F

Rüsselsheim temperature yesterday

Maximum temperature yesterday: 70 °F (at 4:58 PM)
Minimum temperature yesterday: 58 °F (at 7:58 AM)
Average temperature yesterday: 64 °F

Past Weeks' High & Low Weather Summary

 TemperatureHumidityPressure
High77 °F (Sep 17, 3:58 PM)100% (Sep 19, 6:58 AM)30.39 "Hg (Sep 19, 6:58 AM)
Low43 °F (Sep 23, 5:58 AM)49% (Sep 17, 4:58 PM)29.86 "Hg (Sep 18, 2:58 AM)
Average61 °F82%30.09 "Hg
* Reported Sep 15 10:58 PM — Sep 30 10:58 PM, Rüsselsheim, Weather by CustomWeather, © 2014

Note: Actual official high and low records may vary slightly from our data, if they occured in-between our weather recording intervals... More about our weather records

Advertising

Rüsselsheim weather history for previous 24 hours

 ConditionsComfort  
Time TempWeatherWind HumidityBarometerVisibility
10:58 PM
Sep 30
60 °FOvercast.1 mph94%30.31 "HgN/A
9:58 PM63 °FOvercast.5 mph88%30.30 "HgN/A
8:58 PM64 °FOvercast.5 mph88%30.30 "HgN/A
7:58 PM66 °FOvercast.3 mph78%30.29 "HgN/A
6:58 PM68 °FOvercast.2 mph73%30.29 "HgN/A
5:58 PM69 °FMostly cloudy.3 mph70%30.28 "HgN/A
4:58 PM70 °FOvercast.8 mph69%30.27 "HgN/A
3:58 PM69 °FBroken clouds.6 mph71%30.27 "HgN/A
2:58 PM68 °FPartly sunny.5 mph73%30.29 "HgN/A
1:59 PM68 °FPartly sunny.5 mph73%30.29 "HgN/A
1:58 PM68 °FScattered clouds.5 mph73%30.29 "HgN/A
12:58 PM67 °FScattered clouds.No wind72%30.29 "HgN/A
11:58 AM67 °FPartly sunny.3 mph73%30.29 "HgN/A
10:58 AM65 °FScattered clouds.No wind83%30.29 "HgN/A
9:58 AM63 °FOvercast.1 mph88%30.29 "HgN/A
8:58 AM61 °FPartly sunny.3 mph92%30.28 "HgN/A
7:58 AM58 °FMostly cloudy.2 mph96%30.27 "HgN/A
6:58 AM60 °FMostly cloudy.2 mph94%30.24 "HgN/A
5:58 AM61 °FMostly cloudy.5 mph94%30.24 "HgN/A
4:58 AM61 °FOvercast.6 mph94%30.24 "HgN/A
3:59 AM63 °FOvercast.6 mph94%30.24 "HgN/A
3:58 AM63 °FLight rain. Mostly cloudy.5 mph94%30.23 "HgN/A
2:58 AM63 °FMostly cloudy.No wind93%30.24 "HgN/A
1:58 AM63 °FOvercast.1 mph94%30.24 "HgN/A
12:58 AM63 °FOvercast.No wind94%30.25 "HgN/A
Weather by CustomWeather, © 2014

See weather overviewHow to use our weather pages